• In Uzbekistan
  • List of Countries
  • For 7 days
  • Water Temperature
  • Satellite Maps
  • Weather Map
  • Weather Widgets
  • user-avatar
    Login

    Hourly Weather Germersheim

    Today, 17 January, Wednesday

    Time Temperature Precipitation Wind Pressure Humidity
    00:00 +3°C° 0.3 mm 6 mps 738 mmHg 80%
    01:00 +3°C° 0 mm 5 mps 738 mmHg 82%
    02:00 +3°C° 0.4 mm 6 mps 738 mmHg 81%
    03:00 +3°C° 0.4 mm 6 mps 738 mmHg 79%
    04:00 +3°C° 0.4 mm 7 mps 737 mmHg 77%
    05:00 +3°C° 0.3 mm 7 mps 738 mmHg 76%
    06:00 +2°C° 0.3 mm 7 mps 739 mmHg 75%
    07:00 +2°C° 0.3 mm 7 mps 739 mmHg 73%
    08:00 +2°C° 0.1 mm 7 mps 740 mmHg 71%
    09:00 +2°C° 0.1 mm 7 mps 741 mmHg 69%
    10:00 0°C° 0.1 mm 7 mps 742 mmHg 67%
    11:00 +2°C° 0.1 mm 7 mps 743 mmHg 65%
    12:00 +1°C° 0.1 mm 8 mps 744 mmHg 63%
    13:00 +1°C° 0.1 mm 8 mps 744 mmHg 61%
    14:00 +1°C° 0.1 mm 8 mps 745 mmHg 62%
    15:00 +1°C° 0.1 mm 8 mps 745 mmHg 63%
    16:00 +2°C° 0.1 mm 8 mps 746 mmHg 65%
    17:00 +2°C° 0.2 mm 7 mps 746 mmHg 67%
    18:00 +2°C° 0.2 mm 7 mps 747 mmHg 70%
    19:00 +2°C° 0.2 mm 7 mps 748 mmHg 72%
    20:00 +1°C° 0.1 mm 6 mps 748 mmHg 74%
    21:00 +1°C° 0.1 mm 6 mps 749 mmHg 75%
    22:00 +1°C° 0.1 mm 6 mps 749 mmHg 77%
    23:00 +1°C° 0 mm 6 mps 749 mmHg 78%

    Tomorrow, 18 January, Thursday

    Time Temperature Precipitation Wind Pressure Humidity
    00:00 +1°C° 0 mm 6 mps 750 mmHg 79%
    01:00 +1°C° 0 mm 5 mps 750 mmHg 81%
    02:00 +1°C° 0.1 mm 5 mps 749 mmHg 81%
    03:00 +1°C° 0.1 mm 5 mps 749 mmHg 82%
    04:00 +2°C° 0.1 mm 5 mps 749 mmHg 83%
    05:00 +2°C° 0.7 mm 7 mps 747 mmHg 81%
    06:00 +2°C° 0.7 mm 8 mps 746 mmHg 80%
    07:00 +2°C° 0.7 mm 9 mps 745 mmHg 78%
    08:00 +3°C° 0.4 mm 9 mps 744 mmHg 78%
    09:00 +3°C° 0.4 mm 10 mps 743 mmHg 78%
    10:00 +5°C° 0.4 mm 10 mps 743 mmHg 78%
    11:00 +6°C° 0.3 mm 10 mps 742 mmHg 77%
    12:00 +6°C° 0.3 mm 10 mps 742 mmHg 77%
    13:00 +7°C° 0.3 mm 11 mps 742 mmHg 77%
    14:00 +7°C° 0.7 mm 10 mps 741 mmHg 78%
    15:00 +7°C° 0.7 mm 10 mps 741 mmHg 79%
    16:00 +7°C° 0.7 mm 9 mps 741 mmHg 81%
    17:00 +7°C° 1.4 mm 9 mps 741 mmHg 81%
    18:00 +7°C° 1.4 mm 8 mps 741 mmHg 82%
    19:00 +6°C° 1.4 mm 7 mps 741 mmHg 82%
    20:00 +6°C° 0.5 mm 7 mps 742 mmHg 80%
    21:00 +5°C° 0.5 mm 7 mps 742 mmHg 78%
    22:00 +5°C° 0.5 mm 6 mps 743 mmHg 76%
    23:00 +4°C° 0.1 mm 6 mps 743 mmHg 76%

    Day after tomorrow, 19 January, Friday

    Time Temperature Precipitation Wind Pressure Humidity
    00:00 +4°C° 0.1 mm 6 mps 744 mmHg 77%
    01:00 +3°C° 0.1 mm 5 mps 744 mmHg 77%
    02:00 +2°C° 0 mm 5 mps 745 mmHg 79%
    03:00 +3°C° 0 mm 4 mps 746 mmHg 80%
    04:00 +1°C° 0 mm 4 mps 746 mmHg 82%
    05:00 +1°C° 0 mm 4 mps 747 mmHg 83%
    06:00 +1°C° 0 mm 4 mps 747 mmHg 84%
    07:00 +1°C° 0 mm 3 mps 748 mmHg 86%
    08:00 +2°C° 0 mm 3 mps 748 mmHg 84%
    09:00 +2°C° 0 mm 3 mps 748 mmHg 83%
    10:00 +1°C° 0 mm 4 mps 748 mmHg 82%
    11:00 +3°C° 0 mm 4 mps 748 mmHg 78%
    12:00 +4°C° 0 mm 4 mps 748 mmHg 74%
    13:00 +4°C° 0 mm 4 mps 748 mmHg 71%
    14:00 +4°C° 0.2 mm 4 mps 748 mmHg 72%
    15:00 +4°C° 0.2 mm 4 mps 748 mmHg 72%
    16:00 +4°C° 0.2 mm 4 mps 748 mmHg 73%
    17:00 +3°C° 0.1 mm 4 mps 748 mmHg 76%
    18:00 +3°C° 0.1 mm 4 mps 748 mmHg 78%
    19:00 +1°C° 0.1 mm 4 mps 748 mmHg 81%
    20:00 +1°C° 0.2 mm 4 mps 748 mmHg 82%
    21:00 +1°C° 0.2 mm 4 mps 748 mmHg 82%
    22:00 +1°C° 0.2 mm 4 mps 748 mmHg 83%
    23:00 +1°C° 0.3 mm 4 mps 748 mmHg 84%

    20 January, Saturday

    Time Temperature Precipitation Wind Pressure Humidity
    00:00 +1°C° 0.3 mm 4 mps 748 mmHg 84%
    01:00 0°C° 0.3 mm 4 mps 748 mmHg 85%
    02:00 0°C° 0.2 mm 4 mps 748 mmHg 85%
    03:00 0°C° 0.2 mm 4 mps 749 mmHg 86%
    04:00 -1°C° 0.2 mm 4 mps 749 mmHg 87%
    05:00 -1°C° 0.1 mm 4 mps 749 mmHg 87%
    06:00 -1°C° 0.1 mm 4 mps 749 mmHg 87%
    07:00 0°C° 0.1 mm 3 mps 749 mmHg 87%
    08:00 0°C° 0 mm 3 mps 750 mmHg 86%
    09:00 -1°C° 0 mm 4 mps 750 mmHg 85%
    10:00 -1°C° 0 mm 4 mps 750 mmHg 84%
    11:00 0°C° 0 mm 4 mps 750 mmHg 81%
    12:00 +1°C° 0 mm 4 mps 749 mmHg 77%
    13:00 +1°C° 0 mm 4 mps 749 mmHg 74%
    14:00 +1°C° 0 mm 4 mps 749 mmHg 75%
    15:00 +2°C° 0 mm 3 mps 749 mmHg 75%
    16:00 +3°C° 0 mm 2 mps 749 mmHg 76%
    17:00 +2°C° 0 mm 2 mps 749 mmHg 80%
    18:00 +1°C° 0 mm 2 mps 749 mmHg 83%
    19:00 +1°C° 0 mm 1 mps 750 mmHg 87%
    20:00 -1°C° 0 mm 2 mps 750 mmHg 88%
    21:00 -1°C° 0 mm 2 mps 751 mmHg 89%
    22:00 -1°C° 0 mm 2 mps 751 mmHg 90%
    23:00 -1°C° 0 mm 2 mps 752 mmHg 90%

    21 January, Sunday

    Time Temperature Precipitation Wind Pressure Humidity
    00:00 -2°C° 0 mm 2 mps 752 mmHg 90%
    01:00 -2°C° 0 mm 2 mps 753 mmHg 91%
    02:00 -2°C° 0 mm 2 mps 753 mmHg 91%
    03:00 -2°C° 0 mm 2 mps 754 mmHg 90%
    04:00 -2°C° 0 mm 2 mps 754 mmHg 90%
    05:00 -2°C° 0 mm 2 mps 755 mmHg 90%
    06:00 -2°C° 0 mm 2 mps 755 mmHg 90%
    07:00 -2°C° 0 mm 2 mps 755 mmHg 90%
    08:00 -1°C° 0 mm 2 mps 756 mmHg 88%
    09:00 -1°C° 0 mm 2 mps 756 mmHg 86%
    10:00 0°C° 0 mm 3 mps 756 mmHg 84%
    11:00 +1°C° 0 mm 3 mps 756 mmHg 79%
    12:00 +1°C° 0 mm 3 mps 756 mmHg 75%
    13:00 +2°C° 0 mm 3 mps 756 mmHg 70%
    14:00 +2°C° 0.2 mm 3 mps 756 mmHg 72%
    15:00 +3°C° 0.2 mm 2 mps 755 mmHg 75%
    16:00 +3°C° 0.2 mm 2 mps 755 mmHg 77%
    17:00 +2°C° 0.6 mm 2 mps 754 mmHg 80%
    18:00 +2°C° 0.6 mm 2 mps 753 mmHg 83%
    19:00 +1°C° 0.6 mm 3 mps 753 mmHg 86%
    20:00 +1°C° 0.8 mm 3 mps 752 mmHg 89%
    21:00 +2°C° 0.8 mm 2 mps 752 mmHg 91%
    22:00 +2°C° 0.8 mm 2 mps 751 mmHg 94%
    23:00 +3°C° 0.5 mm 2 mps 751 mmHg 95%

    22 January, Monday

    Time Temperature Precipitation Wind Pressure Humidity
    00:00 +3°C° 0.5 mm 2 mps 751 mmHg 96%
    01:00 +4°C° 0.5 mm 2 mps 751 mmHg 97%
    02:00 +5°C° 0.3 mm 2 mps 750 mmHg 97%
    03:00 +4°C° 0.3 mm 3 mps 750 mmHg 97%
    04:00 +5°C° 0.3 mm 3 mps 750 mmHg 97%
    05:00 +5°C° 1.3 mm 3 mps 750 mmHg 97%
    06:00 +7°C° 1.3 mm 3 mps 750 mmHg 97%
    07:00 +6°C° 1.3 mm 4 mps 750 mmHg 97%
    08:00 +6°C° 2.1 mm 4 mps 750 mmHg 96%
    09:00 +6°C° 2.1 mm 4 mps 750 mmHg 96%
    10:00 +7°C° 2.1 mm 3 mps 750 mmHg 96%
    11:00 +8°C° 0.9 mm 3 mps 750 mmHg 96%
    12:00 +8°C° 0.9 mm 3 mps 751 mmHg 96%
    13:00 +9°C° 0.9 mm 3 mps 751 mmHg 96%
    14:00 +9°C° 0.6 mm 3 mps 751 mmHg 96%
    15:00 +9°C° 0.6 mm 3 mps 751 mmHg 96%
    16:00 +9°C° 0.6 mm 3 mps 752 mmHg 96%
    17:00 +9°C° 0.3 mm 3 mps 752 mmHg 95%
    18:00 +9°C° 0.3 mm 3 mps 752 mmHg 95%
    19:00 +9°C° 0.3 mm 3 mps 753 mmHg 94%
    20:00 +8°C° 0 mm 3 mps 753 mmHg 95%
    21:00 +8°C° 0 mm 3 mps 753 mmHg 95%
    22:00 +8°C° 0 mm 3 mps 754 mmHg 95%
    23:00 +8°C° 0.1 mm 2 mps 754 mmHg 96%
    Show more